FENGYUN 1C DEB, 29980

Orbit data source: Space-Track

FENGYUN 1C DEB, 29980 is space debris in SSO originally from a launch on Mon, 10 May 1999 UTC launched from the Taiyaun Space Center, China (TSC). Fengyun 1C debris stems from the Chinese weather satellite Fengyun-1C, which was intentionally destroyed by a Chinese anti-satellite missile in 2007. This event dramatically increased the amount of space debris, with thousands of trackable fragments posing hazards to satellites and human spaceflight. The Fengyun 1C debris cloud has become a focal point in discussions about space sustainability and the need for international regulations to prevent the creation of new debris.

Loading next visibility...
Identifier
29980, 1999-025LE
Orbit
SSO
Country
Flag of CNCN / PRC
Related business
Manufacturer
Unknown
Mission
Spacecraft
Bus & Motor
Unknown
Mass
Unknown
Launch date (UTC)
1999-05-10 (27 years ago)
Launch vehicle
Unknown
Launch site
Taiyaun Space Center, China (TSC)
Object type
Payload
Rocket body
Debris
Shape & HBR
Unknown shape, 0.1 m
Radar Cross Section
Small (<0.1 m²)

Expand to show TLE details & history
Last TLE update: 14 hours ago

TLE from 14 hours ago
0 FENGYUN 1C DEB
1 29980U 99025LE  26070.94787832  .00000158  00000-0  11658-3 0  9994
2 29980  98.5618 240.2630 0087360 356.2979 157.2642 14.06381025982465
Epoch: 2026-03-11T22:44Z
TLE epoch observation values (Epoch: 2026-03-11T22:44:56.686Z)
Latitude
25.77533°
Longitude
-86.43066°
Altitude
933.404 km
Speed
7.358 km/s
True Right ascension
04h 17m 38s
True Declination
25° 38' 39"
Sunlit
Object was in daylight at epoch
Visualization orbit readout
Latitude
Unknown
Longitude
Unknown
Altitude
Unknown
Speed
Unknown
Apparent Right ascension
Unknown
Apparent Declination
Unknown
Sunlit
N/A
Visualization observer readout
Local Sidereal Time
17:08:01
Azimuth
Unknown
Elevation
Unknown
Doppler factor
Unknown
Orbital elements
Apogee altitude
932.262 km
Perigee altitude
805.641 km
Semi-major axis
7,247.089 km
Eccentricity
0.00874
Inclination
98.5618°
RAAN
240.263°
Arg. of periapsis
356.2979°
True anomaly
157.64723°
Mean anomaly
157.2642°
Eccentric anomaly
157.4561°
Mean motion
3.51802 °/min
Orbital period
102.33 mins
BSTAR
0.00011658
Loading maneuver chart data...
Computing Atmospheric mass density...
Loading historical data...
Loading historical data...
Loading historical data...
Loading historical data...
Loading historical data...
Loading historical data...
Loading historical data...

Documentation

Showing up to 5 results
|